﻿測定場所 (Monitoring sites),日付 (Measurement date),時間 (Measurement time),線量率 最大値 (max) μGy/h,線量率 最小値 (min) μGy/h,線量率 平均値 (average) μGy/h,
足立 (Adachi),2018-09-09,23:01～24:00,0.0317,0.0276,0.0303,
足立 (Adachi),2018-09-09,22:01～23:00,0.0318,0.0286,0.0303,
足立 (Adachi),2018-09-09,21:01～22:00,0.0324,0.0287,0.0303,
足立 (Adachi),2018-09-09,20:01～21:00,0.0322,0.0284,0.0305,
足立 (Adachi),2018-09-09,19:01～20:00,0.0315,0.0286,0.0302,
足立 (Adachi),2018-09-09,18:01～19:00,0.0318,0.0288,0.0302,
足立 (Adachi),2018-09-09,17:01～18:00,0.0318,0.0287,0.0302,
足立 (Adachi),2018-09-09,16:01～17:00,0.0322,0.0280,0.0301,
足立 (Adachi),2018-09-09,15:01～16:00,0.0319,0.0284,0.0302,
足立 (Adachi),2018-09-09,14:01～15:00,0.0320,0.0285,0.0300,
足立 (Adachi),2018-09-09,13:01～14:00,0.0315,0.0276,0.0298,
足立 (Adachi),2018-09-09,12:01～13:00,0.0323,0.0273,0.0302,
足立 (Adachi),2018-09-09,11:01～12:00,0.0317,0.0278,0.0299,
足立 (Adachi),2018-09-09,10:01～11:00,0.0318,0.0287,0.0300,
足立 (Adachi),2018-09-09,09:01～10:00,0.0330,0.0286,0.0303,
足立 (Adachi),2018-09-09,08:01～09:00,0.0325,0.0270,0.0300,
足立 (Adachi),2018-09-09,07:01～08:00,0.0319,0.0281,0.0301,
足立 (Adachi),2018-09-09,06:01～07:00,0.0328,0.0279,0.0306,
足立 (Adachi),2018-09-09,05:01～06:00,0.0334,0.0292,0.0309,
足立 (Adachi),2018-09-09,04:01～05:00,0.0325,0.0289,0.0309,
足立 (Adachi),2018-09-09,03:01～04:00,0.0320,0.0284,0.0304,
足立 (Adachi),2018-09-09,02:01～03:00,0.0324,0.0281,0.0300,
足立 (Adachi),2018-09-09,01:01～02:00,0.0319,0.0285,0.0300,
足立 (Adachi),2018-09-09,00:01～01:00,0.0320,0.0278,0.0302,
足立 (Adachi),2018-09-08,23:01～24:00,0.0331,0.0286,0.0306,
足立 (Adachi),2018-09-08,22:01～23:00,0.0325,0.0288,0.0302,
足立 (Adachi),2018-09-08,21:01～22:00,0.0321,0.0285,0.0301,
足立 (Adachi),2018-09-08,20:01～21:00,0.0318,0.0280,0.0301,
足立 (Adachi),2018-09-08,19:01～20:00,0.0317,0.0284,0.0299,
足立 (Adachi),2018-09-08,18:01～19:00,0.0317,0.0277,0.0299,
足立 (Adachi),2018-09-08,17:01～18:00,0.0326,0.0279,0.0300,
足立 (Adachi),2018-09-08,16:01～17:00,0.0321,0.0284,0.0300,
足立 (Adachi),2018-09-08,15:01～16:00,0.0323,0.0278,0.0300,
足立 (Adachi),2018-09-08,14:01～15:00,0.0325,0.0291,0.0305,
足立 (Adachi),2018-09-08,13:01～14:00,0.0339,0.0280,0.0301,
足立 (Adachi),2018-09-08,12:01～13:00,0.0317,0.0275,0.0297,
足立 (Adachi),2018-09-08,11:01～12:00,0.0309,0.0277,0.0295,
足立 (Adachi),2018-09-08,10:01～11:00,0.0325,0.0275,0.0294,
足立 (Adachi),2018-09-08,09:01～10:00,0.0316,0.0276,0.0295,
足立 (Adachi),2018-09-08,08:01～09:00,0.0308,0.0278,0.0292,
足立 (Adachi),2018-09-08,07:01～08:00,0.0311,0.0276,0.0293,
足立 (Adachi),2018-09-08,06:01～07:00,0.0318,0.0281,0.0294,
足立 (Adachi),2018-09-08,05:01～06:00,0.0302,0.0263,0.0285,
足立 (Adachi),2018-09-08,04:01～05:00,0.0310,0.0259,0.0281,
足立 (Adachi),2018-09-08,03:01～04:00,0.0307,0.0258,0.0280,
足立 (Adachi),2018-09-08,02:01～03:00,0.0302,0.0258,0.0281,
足立 (Adachi),2018-09-08,01:01～02:00,0.0313,0.0260,0.0282,
足立 (Adachi),2018-09-08,00:01～01:00,0.0296,0.0265,0.0282,
足立 (Adachi),2018-09-07,23:01～24:00,0.0304,0.0266,0.0281,
足立 (Adachi),2018-09-07,22:01～23:00,0.0296,0.0262,0.0282,
足立 (Adachi),2018-09-07,21:01～22:00,0.0301,0.0262,0.0283,
足立 (Adachi),2018-09-07,20:01～21:00,0.0298,0.0253,0.0280,
足立 (Adachi),2018-09-07,19:01～20:00,0.0295,0.0262,0.0279,
足立 (Adachi),2018-09-07,18:01～19:00,0.0303,0.0261,0.0280,
足立 (Adachi),2018-09-07,17:01～18:00,0.0315,0.0275,0.0295,
足立 (Adachi),2018-09-07,16:01～17:00,0.0318,0.0275,0.0294,
足立 (Adachi),2018-09-07,15:01～16:00,0.0323,0.0279,0.0295,
足立 (Adachi),2018-09-07,14:01～15:00,0.0315,0.0275,0.0293,
足立 (Adachi),2018-09-07,13:01～14:00,0.0312,0.0278,0.0293,
足立 (Adachi),2018-09-07,12:01～13:00,0.0316,0.0283,0.0297,
足立 (Adachi),2018-09-07,11:01～12:00,0.0316,0.0286,0.0299,
足立 (Adachi),2018-09-07,10:01～11:00,0.0323,0.0279,0.0295,
足立 (Adachi),2018-09-07,09:01～10:00,0.0312,0.0273,0.0294,
足立 (Adachi),2018-09-07,08:01～09:00,0.0317,0.0269,0.0294,
足立 (Adachi),2018-09-07,07:01～08:00,0.0325,0.0279,0.0303,
足立 (Adachi),2018-09-07,06:01～07:00,0.0319,0.0279,0.0299,
足立 (Adachi),2018-09-07,05:01～06:00,0.0323,0.0284,0.0304,
足立 (Adachi),2018-09-07,04:01～05:00,0.0347,0.0305,0.0327,
足立 (Adachi),2018-09-07,03:01～04:00,0.0347,0.0315,0.0330,
足立 (Adachi),2018-09-07,02:01～03:00,0.0334,0.0277,0.0310,
足立 (Adachi),2018-09-07,01:01～02:00,0.0321,0.0282,0.0300,
足立 (Adachi),2018-09-07,00:01～01:00,0.0326,0.0275,0.0302,
足立 (Adachi),2018-09-06,23:01～24:00,0.0322,0.0286,0.0301,
足立 (Adachi),2018-09-06,22:01～23:00,0.0323,0.0287,0.0304,
足立 (Adachi),2018-09-06,21:01～22:00,0.0324,0.0284,0.0303,
足立 (Adachi),2018-09-06,20:01～21:00,0.0325,0.0287,0.0305,
足立 (Adachi),2018-09-06,19:01～20:00,0.0321,0.0287,0.0304,
足立 (Adachi),2018-09-06,18:01～19:00,0.0320,0.0282,0.0302,
足立 (Adachi),2018-09-06,17:01～18:00,0.0319,0.0284,0.0304,
足立 (Adachi),2018-09-06,16:01～17:00,0.0326,0.0286,0.0304,
足立 (Adachi),2018-09-06,15:01～16:00,0.0334,0.0277,0.0305,
足立 (Adachi),2018-09-06,14:01～15:00,0.0325,0.0282,0.0303,
足立 (Adachi),2018-09-06,13:01～14:00,0.0314,0.0281,0.0299,
足立 (Adachi),2018-09-06,12:01～13:00,0.0323,0.0284,0.0300,
足立 (Adachi),2018-09-06,11:01～12:00,0.0320,0.0269,0.0303,
足立 (Adachi),2018-09-06,10:01～11:00,0.0327,0.0278,0.0306,
足立 (Adachi),2018-09-06,09:01～10:00,0.0329,0.0286,0.0306,
足立 (Adachi),2018-09-06,08:01～09:00,0.0329,0.0276,0.0306,
足立 (Adachi),2018-09-06,07:01～08:00,0.0339,0.0292,0.0308,
足立 (Adachi),2018-09-06,06:01～07:00,0.0322,0.0284,0.0302,
足立 (Adachi),2018-09-06,05:01～06:00,0.0318,0.0282,0.0298,
足立 (Adachi),2018-09-06,04:01～05:00,0.0306,0.0270,0.0289,
足立 (Adachi),2018-09-06,03:01～04:00,0.0312,0.0269,0.0289,
足立 (Adachi),2018-09-06,02:01～03:00,0.0317,0.0280,0.0299,
足立 (Adachi),2018-09-06,01:01～02:00,0.0322,0.0291,0.0304,
足立 (Adachi),2018-09-06,00:01～01:00,0.0324,0.0287,0.0302,
足立 (Adachi),2018-09-05,23:01～24:00,0.0325,0.0289,0.0303,
足立 (Adachi),2018-09-05,22:01～23:00,0.0321,0.0286,0.0302,
足立 (Adachi),2018-09-05,21:01～22:00,0.0324,0.0282,0.0302,
足立 (Adachi),2018-09-05,20:01～21:00,0.0321,0.0281,0.0299,
足立 (Adachi),2018-09-05,19:01～20:00,0.0322,0.0282,0.0300,
足立 (Adachi),2018-09-05,18:01～19:00,0.0316,0.0287,0.0298,
足立 (Adachi),2018-09-05,17:01～18:00,0.0318,0.0279,0.0299,
足立 (Adachi),2018-09-05,16:01～17:00,0.0312,0.0277,0.0299,
足立 (Adachi),2018-09-05,15:01～16:00,0.0323,0.0278,0.0297,
足立 (Adachi),2018-09-05,14:01～15:00,0.0319,0.0282,0.0297,
足立 (Adachi),2018-09-05,13:01～14:00,0.0317,0.0274,0.0296,
足立 (Adachi),2018-09-05,12:01～13:00,0.0324,0.0278,0.0295,
足立 (Adachi),2018-09-05,11:01～12:00,0.0314,0.0272,0.0294,
足立 (Adachi),2018-09-05,10:01～11:00,0.0309,0.0271,0.0294,
足立 (Adachi),2018-09-05,09:01～10:00,0.0309,0.0277,0.0293,
足立 (Adachi),2018-09-05,08:01～09:00,0.0315,0.0275,0.0296,
足立 (Adachi),2018-09-05,07:01～08:00,0.0348,0.0284,0.0313,
足立 (Adachi),2018-09-05,06:01～07:00,0.0460,0.0328,0.0379,
足立 (Adachi),2018-09-05,05:01～06:00,0.0491,0.0424,0.0451,
足立 (Adachi),2018-09-05,04:01～05:00,0.0461,0.0366,0.0418,
足立 (Adachi),2018-09-05,03:01～04:00,0.0375,0.0267,0.0314,
足立 (Adachi),2018-09-05,02:01～03:00,0.0309,0.0269,0.0291,
足立 (Adachi),2018-09-05,01:01～02:00,0.0317,0.0277,0.0295,
足立 (Adachi),2018-09-05,00:01～01:00,0.0317,0.0276,0.0293,
足立 (Adachi),2018-09-04,23:01～24:00,0.0313,0.0284,0.0294,
足立 (Adachi),2018-09-04,22:01～23:00,0.0313,0.0273,0.0292,
足立 (Adachi),2018-09-04,21:01～22:00,0.0306,0.0266,0.0291,
足立 (Adachi),2018-09-04,20:01～21:00,0.0307,0.0277,0.0291,
足立 (Adachi),2018-09-04,19:01～20:00,0.0305,0.0261,0.0288,
足立 (Adachi),2018-09-04,18:01～19:00,0.0305,0.0269,0.0289,
足立 (Adachi),2018-09-04,17:01～18:00,0.0319,0.0265,0.0287,
足立 (Adachi),2018-09-04,16:01～17:00,0.0312,0.0272,0.0288,
足立 (Adachi),2018-09-04,15:01～16:00,0.0308,0.0271,0.0287,
足立 (Adachi),2018-09-04,14:01～15:00,0.0309,0.0274,0.0289,
足立 (Adachi),2018-09-04,13:01～14:00,0.0304,0.0269,0.0285,
足立 (Adachi),2018-09-04,12:01～13:00,0.0303,0.0263,0.0284,
足立 (Adachi),2018-09-04,11:01～12:00,0.0304,0.0266,0.0285,
足立 (Adachi),2018-09-04,10:01～11:00,0.0306,0.0256,0.0287,
足立 (Adachi),2018-09-04,09:01～10:00,0.0320,0.0266,0.0294,
足立 (Adachi),2018-09-04,08:01～09:00,0.0310,0.0267,0.0291,
足立 (Adachi),2018-09-04,07:01～08:00,0.0317,0.0273,0.0296,
足立 (Adachi),2018-09-04,06:01～07:00,0.0316,0.0273,0.0296,
足立 (Adachi),2018-09-04,05:01～06:00,0.0321,0.0283,0.0300,
足立 (Adachi),2018-09-04,04:01～05:00,0.0318,0.0278,0.0298,
足立 (Adachi),2018-09-04,03:01～04:00,0.0311,0.0276,0.0295,
足立 (Adachi),2018-09-04,02:01～03:00,0.0312,0.0280,0.0298,
足立 (Adachi),2018-09-04,01:01～02:00,0.0321,0.0275,0.0299,
足立 (Adachi),2018-09-04,00:01～01:00,0.0314,0.0278,0.0296,
足立 (Adachi),2018-09-03,23:01～24:00,0.0328,0.0282,0.0298,
足立 (Adachi),2018-09-03,22:01～23:00,0.0317,0.0273,0.0294,
足立 (Adachi),2018-09-03,21:01～22:00,0.0313,0.0273,0.0294,
足立 (Adachi),2018-09-03,20:01～21:00,0.0310,0.0275,0.0298,
足立 (Adachi),2018-09-03,19:01～20:00,0.0326,0.0285,0.0300,
足立 (Adachi),2018-09-03,18:01～19:00,0.0317,0.0275,0.0296,
足立 (Adachi),2018-09-03,17:01～18:00,0.0313,0.0274,0.0294,
足立 (Adachi),2018-09-03,16:01～17:00,0.0314,0.0279,0.0295,
足立 (Adachi),2018-09-03,15:01～16:00,0.0331,0.0270,0.0297,
足立 (Adachi),2018-09-03,14:01～15:00,0.0316,0.0280,0.0298,
足立 (Adachi),2018-09-03,13:01～14:00,0.0325,0.0280,0.0300,
足立 (Adachi),2018-09-03,12:01～13:00,0.0330,0.0284,0.0304,
足立 (Adachi),2018-09-03,11:01～12:00,0.0321,0.0278,0.0297,
足立 (Adachi),2018-09-03,10:01～11:00,0.0320,0.0278,0.0299,
足立 (Adachi),2018-09-03,09:01～10:00,0.0318,0.0284,0.0302,
足立 (Adachi),2018-09-03,08:01～09:00,0.0320,0.0290,0.0303,
足立 (Adachi),2018-09-03,07:01～08:00,0.0316,0.0283,0.0300,
足立 (Adachi),2018-09-03,06:01～07:00,0.0322,0.0280,0.0298,
足立 (Adachi),2018-09-03,05:01～06:00,0.0318,0.0267,0.0293,
足立 (Adachi),2018-09-03,04:01～05:00,0.0318,0.0270,0.0293,
足立 (Adachi),2018-09-03,03:01～04:00,0.0312,0.0281,0.0299,
足立 (Adachi),2018-09-03,02:01～03:00,0.0327,0.0273,0.0298,
足立 (Adachi),2018-09-03,01:01～02:00,0.0325,0.0285,0.0301,
足立 (Adachi),2018-09-03,00:01～01:00,0.0322,0.0284,0.0305,
